Wind_Speed
69 71 63 50 54 54 57 53 47 49 48 48 44 49 41 27 33 35 32 29 32 35 29 30 31 36 41 42 35 35 30 36 32 31 30 26 26 28 30 33 35 35 40 44
71 65 52 59 58 59 56 57 52 51 48 44 41 42 39 31 31 33 32 29 33 30 26 26 29 32 40 38 33 36 32 33 28 29 27 24 26 28 31 33 34 38 40 41
69 55 62 63 63 63 59 57 51 48 50 44 47 49 40 29 27 29 30 34 29 22 25 28 31 36 38 37 30 26 30 27 25 26 24 25 28 30 31 32 33 37 37 38
67 59 62 60 64 66 64 56 54 52 51 49 46 52 40 27 28 28 31 29 20 21 24 26 28 33 33 28 21 22 26 23 25 22 24 27 29 29 29 30 32 35 35 33
56 61 63 62 59 66 56 56 55 53 52 50 49 46 19 26 23 24 25 21 19 22 27 27 28 29 26 18 19 22 21 23 22 22 25 28 26 26 25 28 31 33 31 31
56 58 58 59 61 62 59 59 55 53 51 53 42 44 18 22 23 28 19 20 19 23 28 27 26 22 16 14 18 19 21 19 19 22 26 24 25 23 26 28 30 27 28 27
49 54 56 57 61 59 61 60 57 57 55 49 36 41 29 13 20 17 18 18 19 24 24 20 16 17 13 18 16 20 16 16 19 23 22 22 22 24 24 26 26 26 23 19
39 46 54 56 57 60 60 62 62 61 58 48 42 48 22 17 17 9 15 19 21 19 15 15 11 14 16 14 18 13 13 17 20 21 19 21 22 22 23 23 23 21 19 15
34 42 38 55 58 52 56 65 52 59 57 54 47 44 37 29 17 5 9 11 17 11 12 10 10 11 12 15 12 11 15 18 19 18 18 20 18 21 24 23 22 19 15 14
29 39 34 43 59 65 60 53 58 56 57 58 49 45 37 26 14 12 12 15 15 12 11 10 9 10 13 10 9 13 16 16 16 15 17 17 17 21 21 19 16 14 10 8
26 34 35 42 54 60 57 57 61 59 56 53 49 45 15 18 15 18 15 17 13 17 13 12 11 14 10 8 11 13 13 14 13 14 15 16 20 17 15 14 13 11 8 7
26 19 31 42 46 51 63 63 57 62 57 50 46 30 24 13 24 22 8 12 16 16 13 12 13 10 7 7 8 9 12 11 12 14 14 16 15 13 12 13 10 9 5 6
13 18 22 41 41 41 57 62 56 55 55 53 48 36 29 13 11 22 22 19 18 16 14 12 13 10 7 6 8 8 10 10 10 14 15 14 10 11 9 11 8 7 4 5
15 18 21 29 37 48 47 66 58 49 60 53 53 40 15 14 14 26 21 19 13 18 14 14 13 10 6 6 8 7 9 9 10 13 11 10 10 9 9 10 8 5 3 4
8 5 16 26 38 45 44 69 62 60 58 59 48 33 24 18 22 24 23 18 13 15 13 15 12 8 6 6 7 6 8 7 9 8 8 10 10 6 7 9 6 4 2 4
7 7 15 21 34 45 43 63 65 64 60 56 40 38 23 24 27 27 24 15 17 18 15 17 10 6 6 7 5 6 5 6 7 7 10 10 7 4 6 8 6 5 2 4
11 6 6 13 26 37 45 60 56 60 54 49 46 36 24 33 33 35 25 21 21 21 16 14 8 5 4 5 5 5 4 3 6 9 9 8 4 6 5 4 3 4 2 2
2 6 3 5 14 23 40 43 48 46 44 56 46 32 28 35 39 40 32 30 30 24 18 12 6 4 4 5 4 3 3 1 5 6 7 5 4 5 6 7 5 2 2 2
6 5 8 9 12 35 40 49 53 53 44 48 53 49 35 42 36 38 31 27 31 29 17 8 4 4 6 4 2 2 2 1 3 5 6 7 5 8 7 9 6 3 1 4
8 8 10 8 15 35 16 55 55 49 38 37 40 38 38 46 45 36 31 31 28 21 14 10 3 4 7 3 1 0 1 1 2 3 7 9 11 9 7 7 8 9 8 4
9 9 4 18 15 9 46 59 52 44 39 30 41 46 47 43 37 32 26 28 28 21 16 9 4 2 8 5 1 0 2 1 2 2 5 8 11 13 12 7 6 8 10 5
11 8 3 15 33 16 23 52 51 45 25 42 41 46 40 41 43 35 30 30 28 24 16 10 7 4 8 8 3 2 2 2 2 2 4 5 9 12 14 12 9 8 9 11
3 11 4 25 15 3 30 57 45 48 33 43 41 49 53 40 39 37 33 29 28 24 20 13 9 7 7 10 6 2 2 3 3 2 3 4 6 9 10 11 16 15 15 17
4 7 11 14 18 11 34 48 41 53 42 43 50 50 45 47 44 37 38 28 27 27 24 19 13 9 9 9 10 5 2 3 4 1 2 3 5 7 9 8 13 20 21 19
1 4 4 12 23 18 13 29 31 29 40 36 39 50 46 41 42 38 33 34 30 28 28 22 17 12 11 8 9 9 5 2 5 3 1 2 5 7 8 8 10 13 16 20
7 4 5 9 15 17 16 5 17 40 29 41 43 38 52 45 39 37 36 34 29 27 24 19 18 15 11 9 7 9 8 4 3 6 4 3 5 7 9 12 13 15 17 19
Wind_Direction
242 241 242 246 249 252 254 257 259 259 258 261 264 271 269 266 273 276 282 291 283 284 292 297 293 288 283 285 286 273 274 267 271 275 282 287 297 305 306 304 305 308 300 298
242 244 245 242 243 245 246 249 253 257 259 259 261 263 266 259 260 271 276 278 282 293 304 291 284 278 279 282 279 277 271 265 267 275 280 288 298 305 302 303 304 299 298 300
242 242 239 238 239 242 242 244 248 253 256 258 260 260 265 264 269 267 276 279 292 303 293 289 287 277 272 272 271 272 266 265 270 279 284 298 301 302 302 302 301 298 299 301
240 237 238 236 236 238 240 241 245 248 252 253 253 265 256 259 258 268 270 279 293 287 283 279 281 279 274 276 267 254 259 265 277 283 292 298 302 302 300 299 297 296 300 306
239 237 235 232 233 233 235 235 238 241 245 250 250 258 252 254 256 256 270 287 289 290 288 285 284 280 277 269 245 248 253 268 280 292 295 300 300 301 301 296 296 304 307 313
229 231 230 231 230 231 230 229 232 236 239 242 242 251 240 246 255 264 283 293 284 281 291 299 289 287 274 244 245 244 259 277 286 293 299 300 298 299 297 296 303 306 316 322
227 223 227 226 226 228 224 226 225 227 229 239 238 249 254 246 272 266 277 286 274 284 297 298 295 279 241 240 242 252 270 286 290 299 303 298 298 297 296 301 305 309 317 317
228 226 221 221 224 224 219 218 224 229 232 236 234 240 239 255 279 300 285 269 274 297 296 275 259 238 235 239 248 267 285 292 299 298 300 294 297 299 305 305 302 313 314 317
244 229 220 217 218 217 221 215 222 225 228 231 231 240 245 246 276 299 295 290 299 290 272 276 235 229 229 254 269 288 296 299 296 300 293 291 297 301 306 305 307 317 312 312
252 237 214 214 216 215 210 215 207 216 220 227 226 235 240 244 257 272 291 296 305 263 261 262 245 236 246 264 291 296 295 291 298 292 292 297 299 303 303 301 311 309 306 297
252 254 202 205 214 212 204 208 209 210 220 222 227 227 213 240 265 268 271 287 268 255 257 249 245 243 254 278 289 294 289 298 291 294 301 299 306 305 304 303 313 306 301 285
260 263 216 211 204 210 202 199 201 206 210 217 218 215 195 211 229 264 247 269 254 255 260 247 243 244 241 276 295 284 298 294 294 303 303 301 312 312 315 304 304 301 290 274
257 267 248 210 203 208 204 195 194 201 203 211 212 197 173 161 247 258 258 267 254 246 253 241 242 228 248 283 281 286 293 290 304 303 305 308 316 321 303 297 295 311 286 268
265 266 239 201 205 197 201 189 184 190 200 201 209 184 189 202 235 252 261 265 253 242 235 229 225 241 259 286 277 292 290 292 307 305 316 317 312 317 301 294 295 308 284 234
255 274 250 227 207 197 199 187 185 190 193 200 202 179 196 208 229 235 244 252 237 236 244 240 235 255 270 284 271 286 282 309 307 335 316 313 313 301 299 288 298 290 274 208
231 255 230 241 214 192 204 185 191 196 199 199 180 182 184 181 214 207 232 242 224 237 242 246 246 263 276 278 266 268 279 311 307 318 315 318 319 330 317 280 283 281 273 200
239 255 290 256 235 200 193 194 189 196 193 182 175 176 177 207 203 216 221 221 225 234 234 243 247 257 271 248 263 265 274 299 310 317 327 333 336 357 4 334 302 237 254 228
348 274 140 106 259 212 173 181 180 179 182 183 167 186 202 196 195 207 203 205 216 221 225 233 239 250 222 220 280 269 281 295 306 337 336 345 17 53 52 48 59 54 284 211
316 346 171 185 173 156 169 172 175 181 186 197 183 200 206 211 213 214 208 221 220 221 232 235 236 223 202 208 279 266 292 282 328 1 22 48 50 61 48 32 34 21 293 250
311 290 198 154 174 174 157 179 178 177 192 203 204 192 198 183 203 191 204 209 213 221 217 226 183 231 199 185 344 245 261 282 43 39 59 62 57 64 69 48 32 34 50 96
55 40 249 213 213 139 152 172 181 184 182 198 199 200 195 164 177 193 196 205 204 210 212 219 206 237 202 174 79 104 161 109 74 89 59 65 61 57 54 53 35 53 46 87
37 96 303 232 153 137 155 173 186 188 182 199 195 195 175 168 181 184 198 212 204 200 210 208 228 227 202 184 146 46 151 117 115 126 95 61 64 59 58 58 62 44 57 68
25 126 34 181 170 65 125 173 179 194 159 189 198 188 196 192 188 191 196 197 200 206 199 203 217 219 195 190 177 118 98 132 123 168 132 88 70 69 67 58 59 67 90 80
325 162 218 205 197 170 128 176 172 199 198 182 192 188 188 203 194 191 200 204 201 201 196 194 213 221 193 188 187 179 114 141 129 187 133 90 79 94 85 76 77 83 85 79
344 113 215 253 229 228 146 150 160 177 179 186 191 199 191 203 200 202 203 204 203 200 198 190 202 207 194 184 182 190 183 144 147 149 122 102 96 102 104 102 96 94 94 90
359 268 227 233 253 262 239 200 146 188 168 173 193 198 209 202 199 203 200 207 201 201 196 200 205 206 199 179 175 192 197 191 166 163 158 141 124 115 115 114 107 105 98 91
Height
5697 5700 5716 5734 5738 5741 5743 5748 5753 5754 5762 5767 5769 5768 5773 5781 5778 5777 5782 5784 5783 5781 5782 5782 5782 5780 5779 5778 5779 5778 5779 5780 5780 5779 5778 5775 5773 5771 5768 5764 5760 5759 5757 5752
5676 5693 5721 5718 5722 5723 5730 5733 5740 5747 5753 5759 5764 5756 5763 5770 5772 5773 5774 5776 5774 5776 5777 5776 5774 5772 5768 5769 5769 5771 5773 5773 5773 5773 5771 5770 5768 5766 5763 5760 5756 5752 5749 5744
5663 5696 5692 5701 5707 5711 5718 5724 5734 5739 5743 5749 5749 5745 5755 5763 5765 5765 5767 5765 5768 5769 5768 5766 5764 5762 5760 5760 5763 5764 5765 5766 5767 5766 5764 5763 5762 5759 5757 5753 5750 5745 5741 5737
5652 5675 5674 5686 5691 5696 5704 5720 5725 5728 5733 5735 5743 5734 5744 5755 5756 5760 5758 5760 5764 5763 5761 5760 5757 5754 5753 5755 5756 5758 5759 5760 5760 5760 5759 5758 5755 5753 5750 5746 5744 5740 5736 5732
5654 5654 5656 5666 5680 5678 5700 5707 5711 5718 5722 5726 5730 5732 5740 5746 5748 5750 5753 5755 5755 5753 5752 5751 5750 5749 5749 5750 5752 5754 5755 5755 5754 5754 5753 5751 5748 5747 5743 5740 5737 5733 5729 5726
5630 5633 5631 5659 5662 5670 5686 5692 5700 5706 5712 5708 5726 5729 5729 5740 5744 5744 5747 5748 5748 5746 5744 5744 5742 5744 5746 5746 5747 5750 5750 5750 5750 5749 5747 5745 5742 5740 5737 5735 5732 5728 5724 5720
5606 5613 5623 5641 5646 5660 5668 5679 5686 5692 5695 5706 5723 5720 5727 5738 5736 5739 5741 5741 5740 5740 5739 5738 5738 5740 5741 5742 5745 5746 5746 5746 5746 5744 5742 5739 5737 5735 5733 5730 5727 5724 5721 5719
5592 5600 5616 5628 5635 5644 5654 5663 5671 5681 5689 5702 5712 5704 5724 5729 5730 5732 5734 5733 5732 5735 5733 5732 5733 5734 5737 5740 5741 5742 5742 5742 5741 5739 5737 5734 5732 5730 5728 5727 5723 5721 5719 5716
5584 5591 5601 5607 5619 5632 5645 5646 5674 5674 5683 5690 5700 5706 5715 5722 5723 5727 5730 5729 5729 5730 5728 5730 5731 5733 5735 5737 5737 5738 5738 5737 5736 5734 5732 5731 5729 5726 5723 5721 5719 5717 5716 5715
5579 5580 5590 5600 5602 5614 5624 5652 5653 5660 5670 5680 5692 5699 5708 5716 5717 5723 5723 5724 5726 5727 5726 5727 5729 5731 5732 5734 5734 5735 5734 5734 5731 5730 5728 5726 5726 5723 5720 5717 5716 5716 5715 5714
5573 5574 5589 5589 5592 5606 5621 5632 5640 5654 5663 5674 5686 5692 5708 5707 5713 5718 5720 5722 5722 5723 5724 5726 5728 5728 5730 5731 5732 5732 5731 5729 5728 5726 5725 5723 5721 5719 5717 5715 5715 5715 5714 5713
5568 5568 5572 5577 5590 5598 5605 5616 5630 5640 5656 5669 5680 5693 5699 5703 5708 5710 5716 5719 5719 5721 5722 5724 5725 5727 5728 5729 5730 5729 5728 5726 5725 5723 5722 5720 5718 5715 5713 5713 5713 5713 5713 5712
5563 5563 5562 5571 5583 5593 5599 5613 5621 5636 5649 5659 5674 5689 5691 5695 5705 5706 5711 5717 5717 5719 5720 5722 5723 5725 5726 5726 5727 5725 5724 5723 5722 5720 5719 5717 5715 5713 5712 5712 5712 5712 5712 5711
5558 5558 5559 5564 5571 5576 5587 5601 5611 5625 5637 5654 5664 5682 5688 5694 5701 5701 5705 5709 5714 5716 5717 5719 5721 5723 5723 5724 5723 5722 5722 5721 5720 5718 5716 5714 5714 5712 5711 5712 5711 5711 5710 5710
5556 5556 5558 5561 5565 5572 5582 5593 5603 5611 5629 5644 5661 5677 5685 5692 5692 5699 5703 5706 5709 5713 5715 5717 5718 5720 5721 5721 5720 5720 5721 5720 5718 5716 5715 5713 5712 5710 5709 5710 5710 5710 5710 5710
5552 5554 5555 5558 5562 5572 5580 5590 5600 5611 5626 5639 5659 5668 5677 5685 5685 5694 5698 5702 5707 5709 5712 5714 5716 5718 5718 5719 5719 5719 5719 5719 5716 5715 5714 5712 5710 5708 5708 5708 5709 5708 5709 5710
5551 5553 5555 5558 5560 5567 5575 5591 5600 5614 5628 5642 5654 5665 5673 5674 5682 5688 5693 5699 5703 5705 5708 5712 5715 5715 5716 5717 5718 5718 5718 5717 5715 5714 5712 5710 5709 5707 5708 5707 5707 5707 5708 5709
5551 5553 5555 5558 5560 5568 5582 5589 5607 5619 5628 5631 5641 5659 5661 5669 5675 5679 5687 5692 5697 5701 5705 5710 5712 5714 5715 5717 5717 5717 5717 5716 5715 5713 5712 5710 5709 5709 5708 5707 5707 5707 5708 5708
5551 5551 5553 5558 5562 5570 5581 5587 5595 5603 5617 5621 5628 5641 5650 5660 5672 5679 5684 5689 5694 5698 5704 5709 5712 5713 5715 5716 5716 5717 5717 5716 5715 5714 5712 5712 5710 5709 5708 5709 5708 5708 5707 5708
5549 5550 5553 5557 5562 5564 5569 5585 5591 5602 5615 5623 5630 5638 5644 5651 5665 5673 5680 5687 5693 5698 5704 5707 5710 5712 5714 5716 5716 5716 5716 5716 5716 5715 5713 5713 5712 5711 5711 5710 5710 5709 5707 5707
5550 5550 5552 5557 5562 5564 5571 5584 5594 5604 5615 5617 5626 5637 5649 5649 5660 5670 5678 5685 5691 5696 5702 5705 5708 5712 5714 5715 5716 5716 5716 5717 5716 5717 5714 5715 5714 5713 5712 5711 5711 5711 5710 5709
5553 5555 5555 5556 5561 5570 5574 5587 5597 5604 5611 5616 5622 5633 5643 5648 5658 5667 5678 5684 5687 5695 5701 5704 5707 5711 5713 5715 5716 5717 5717 5717 5718 5719 5717 5716 5716 5715 5715 5714 5712 5712 5711 5710
5557 5557 5556 5561 5565 5569 5568 5587 5599 5602 5604 5608 5621 5628 5639 5645 5655 5665 5675 5679 5686 5692 5698 5703 5706 5710 5712 5714 5716 5717 5717 5717 5719 5720 5719 5719 5718 5718 5718 5718 5716 5713 5714 5714
5558 5560 5561 5564 5567 5568 5577 5591 5595 5597 5601 5607 5615 5624 5634 5641 5652 5663 5670 5677 5682 5689 5697 5701 5704 5708 5711 5712 5715 5717 5717 5718 5719 5720 5721 5720 5720 5720 5721 5721 5720 5719 5719 5719
5560 5561 5563 5565 5566 5566 5572 5580 5589 5593 5598 5607 5613 5623 5629 5638 5650 5659 5668 5675 5680 5687 5691 5699 5703 5707 5709 5711 5713 5716 5718 5719 5720 5721 5722 5722 5722 5722 5723 5724 5724 5724 5724 5724
5561 5562 5563 5564 5564 5563 5563 5567 5574 5584 5593 5598 5606 5617 5627 5638 5648 5658 5666 5672 5679 5686 5691 5698 5702 5706 5708 5710 5712 5715 5717 5719 5720 5722 5723 5724 5725 5725 5726 5727 5728 5729 5729 5730